Pit Above Pit 1 Powerhouse [ USA-CAL ]

Edit Gauge

Current Conditions

Reading of "n/a" = frozen gauge or gauge error.
Reading Trend Type Updated
too low 0.0 r.c./hr Status 02h28m
125 cfs 28 cfs/hr Flow 02h28m

Station Description

AW Gauge ID: 48900
Source: dream
Station: 035
Enabled yes
AW thanks Chris Shackleton and Dreamflows for this data. Dreamflows data should only be analyzed in the context of the Dreamflows site. Data is often calculated and/or approximated. Please see Chris's site for a complete description of how this data should and can be interpreted. Source Gauge's Page

Information

Flow

Gauge History

Times listed in GMT 24h, ET and PT hours provided for convenience Graphs in GMT. Readings of "n/a" constitute a frozen gauge or gauge error.
Reading Updated (GMT) Eastern Pacific Comment
125.00 08/19/2018 00:59:44 Aug 18 08:59 pm Aug 18 5:59 pm
97.00 08/19/2018 00:00:00 Aug 18 08:00 pm Aug 18 5:00 pm
505.00 08/18/2018 21:58:24 Aug 18 05:58 pm Aug 18 2:58 pm
545.00 08/18/2018 19:58:56 Aug 18 03:58 pm Aug 18 12:58 pm
490.00 08/18/2018 18:59:12 Aug 18 02:59 pm Aug 18 11:59 am
324.00 08/18/2018 17:59:28 Aug 18 01:59 pm Aug 18 10:59 am
499.00 08/18/2018 16:59:44 Aug 18 12:59 pm Aug 18 9:59 am
473.00 08/18/2018 16:00:00 Aug 18 12:00 pm Aug 18 9:00 am
514.00 08/18/2018 14:58:08 Aug 18 10:58 am Aug 18 7:58 am
472.00 08/18/2018 13:58:24 Aug 18 09:58 am Aug 18 6:58 am
517.00 08/18/2018 12:58:40 Aug 18 08:58 am Aug 18 5:58 am
483.00 08/18/2018 11:58:56 Aug 18 07:58 am Aug 18 4:58 am
532.00 08/18/2018 10:59:12 Aug 18 06:59 am Aug 18 3:59 am
503.00 08/18/2018 09:59:28 Aug 18 05:59 am Aug 18 2:59 am
491.00 08/18/2018 08:00:00 Aug 18 04:00 am Aug 18 1:00 am
817.00 08/18/2018 03:58:56 Aug 17 11:58 pm Aug 17 8:58 pm
624.00 08/18/2018 02:59:12 Aug 17 10:59 pm Aug 17 7:59 pm
328.00 08/18/2018 00:59:44 Aug 17 08:59 pm Aug 17 5:59 pm
481.00 08/18/2018 00:00:00 Aug 17 08:00 pm Aug 17 5:00 pm
483.00 08/17/2018 22:58:08 Aug 17 06:58 pm Aug 17 3:58 pm
493.00 08/17/2018 21:58:24 Aug 17 05:58 pm Aug 17 2:58 pm
503.00 08/17/2018 20:58:40 Aug 17 04:58 pm Aug 17 1:58 pm
506.00 08/17/2018 19:58:56 Aug 17 03:58 pm Aug 17 12:58 pm
480.00 08/17/2018 18:59:12 Aug 17 02:59 pm Aug 17 11:59 am
480.00 08/17/2018 17:59:28 Aug 17 01:59 pm Aug 17 10:59 am
485.00 08/17/2018 16:59:44 Aug 17 12:59 pm Aug 17 9:59 am
515.00 08/17/2018 16:00:00 Aug 17 12:00 pm Aug 17 9:00 am
502.00 08/17/2018 14:58:08 Aug 17 10:58 am Aug 17 7:58 am
496.00 08/17/2018 13:58:24 Aug 17 09:58 am Aug 17 6:58 am
495.00 08/17/2018 12:58:40 Aug 17 08:58 am Aug 17 5:58 am
512.00 08/17/2018 11:58:56 Aug 17 07:58 am Aug 17 4:58 am
515.00 08/17/2018 10:59:12 Aug 17 06:59 am Aug 17 3:59 am
484.00 08/17/2018 09:59:28 Aug 17 05:59 am Aug 17 2:59 am
542.00 08/17/2018 08:59:44 Aug 17 04:59 am Aug 17 1:59 am
509.00 08/17/2018 08:00:00 Aug 17 04:00 am Aug 17 1:00 am
576.00 08/17/2018 03:58:56 Aug 16 11:58 pm Aug 16 8:58 pm
659.00 08/17/2018 02:59:12 Aug 16 10:59 pm Aug 16 7:59 pm
531.00 08/17/2018 01:59:28 Aug 16 09:59 pm Aug 16 6:59 pm
177.00 08/17/2018 00:59:44 Aug 16 08:59 pm Aug 16 5:59 pm
252.00 08/17/2018 00:00:00 Aug 16 08:00 pm Aug 16 5:00 pm
507.00 08/16/2018 22:58:08 Aug 16 06:58 pm Aug 16 3:58 pm
494.00 08/16/2018 21:58:24 Aug 16 05:58 pm Aug 16 2:58 pm
531.00 08/16/2018 20:58:40 Aug 16 04:58 pm Aug 16 1:58 pm
541.00 08/16/2018 19:58:56 Aug 16 03:58 pm Aug 16 12:58 pm
517.00 08/16/2018 18:59:12 Aug 16 02:59 pm Aug 16 11:59 am
521.00 08/16/2018 17:59:28 Aug 16 01:59 pm Aug 16 10:59 am
546.00 08/16/2018 16:59:44 Aug 16 12:59 pm Aug 16 9:59 am
506.00 08/16/2018 16:00:00 Aug 16 12:00 pm Aug 16 9:00 am
525.00 08/16/2018 14:58:08 Aug 16 10:58 am Aug 16 7:58 am
516.00 08/16/2018 13:58:24 Aug 16 09:58 am Aug 16 6:58 am
515.00 08/16/2018 12:58:40 Aug 16 08:58 am Aug 16 5:58 am
543.00 08/16/2018 11:58:56 Aug 16 07:58 am Aug 16 4:58 am
513.00 08/16/2018 10:59:12 Aug 16 06:59 am Aug 16 3:59 am
514.00 08/16/2018 09:59:28 Aug 16 05:59 am Aug 16 2:59 am
513.00 08/16/2018 08:59:44 Aug 16 04:59 am Aug 16 1:59 am
443.00 08/16/2018 08:00:00 Aug 16 04:00 am Aug 16 1:00 am
618.00 08/16/2018 03:58:56 Aug 15 11:58 pm Aug 15 8:58 pm
653.00 08/16/2018 02:59:12 Aug 15 10:59 pm Aug 15 7:59 pm
507.00 08/16/2018 01:59:28 Aug 15 09:59 pm Aug 15 6:59 pm
171.00 08/16/2018 00:59:44 Aug 15 08:59 pm Aug 15 5:59 pm
510.00 08/16/2018 00:00:00 Aug 15 08:00 pm Aug 15 5:00 pm
513.00 08/15/2018 22:58:08 Aug 15 06:58 pm Aug 15 3:58 pm
328.00 08/15/2018 21:58:24 Aug 15 05:58 pm Aug 15 2:58 pm
476.00 08/15/2018 20:58:40 Aug 15 04:58 pm Aug 15 1:58 pm
538.00 08/15/2018 19:58:56 Aug 15 03:58 pm Aug 15 12:58 pm
481.00 08/15/2018 18:59:12 Aug 15 02:59 pm Aug 15 11:59 am
497.00 08/15/2018 17:59:28 Aug 15 01:59 pm Aug 15 10:59 am
512.00 08/15/2018 16:59:44 Aug 15 12:59 pm Aug 15 9:59 am
500.00 08/15/2018 16:00:00 Aug 15 12:00 pm Aug 15 9:00 am
504.00 08/15/2018 14:58:08 Aug 15 10:58 am Aug 15 7:58 am
517.00 08/14/2018 22:58:08 Aug 14 06:58 pm Aug 14 3:58 pm
307.00 08/14/2018 21:58:24 Aug 14 05:58 pm Aug 14 2:58 pm
536.00 08/14/2018 19:58:56 Aug 14 03:58 pm Aug 14 12:58 pm
548.00 08/14/2018 18:59:12 Aug 14 02:59 pm Aug 14 11:59 am
567.00 08/14/2018 17:59:28 Aug 14 01:59 pm Aug 14 10:59 am
560.00 08/14/2018 16:59:44 Aug 14 12:59 pm Aug 14 9:59 am
528.00 08/14/2018 16:00:00 Aug 14 12:00 pm Aug 14 9:00 am
584.00 08/14/2018 13:58:24 Aug 14 09:58 am Aug 14 6:58 am
600.00 08/14/2018 12:58:40 Aug 14 08:58 am Aug 14 5:58 am
628.00 08/14/2018 10:59:12 Aug 14 06:59 am Aug 14 3:59 am
624.00 08/14/2018 09:59:28 Aug 14 05:59 am Aug 14 2:59 am
656.00 08/14/2018 08:59:44 Aug 14 04:59 am Aug 14 1:59 am
772.00 08/14/2018 06:58:08 Aug 14 02:58 am Aug 13 11:58 pm
1041.00 08/14/2018 03:58:56 Aug 13 11:58 pm Aug 13 8:58 pm
1231.00 08/14/2018 01:59:28 Aug 13 09:59 pm Aug 13 6:59 pm
1408.00 08/14/2018 00:00:00 Aug 13 08:00 pm Aug 13 5:00 pm
881.00 08/13/2018 22:58:08 Aug 13 06:58 pm Aug 13 3:58 pm
1221.00 08/13/2018 21:58:24 Aug 13 05:58 pm Aug 13 2:58 pm
1221.00 08/13/2018 19:58:56 Aug 13 03:58 pm Aug 13 12:58 pm
1221.00 08/13/2018 18:59:12 Aug 13 02:59 pm Aug 13 11:59 am
1221.00 08/13/2018 17:59:28 Aug 13 01:59 pm Aug 13 10:59 am
1221.00 08/13/2018 16:59:44 Aug 13 12:59 pm Aug 13 9:59 am
1221.00 08/13/2018 16:00:00 Aug 13 12:00 pm Aug 13 9:00 am
1267.00 08/13/2018 14:58:08 Aug 13 10:58 am Aug 13 7:58 am
1221.00 08/13/2018 13:58:24 Aug 13 09:58 am Aug 13 6:58 am
1221.00 08/13/2018 12:58:40 Aug 13 08:58 am Aug 13 5:58 am
1221.00 08/13/2018 11:58:56 Aug 13 07:58 am Aug 13 4:58 am
1221.00 08/13/2018 09:59:28 Aug 13 05:59 am Aug 13 2:59 am
1221.00 08/13/2018 08:59:44 Aug 13 04:59 am Aug 13 1:59 am
1230.00 08/13/2018 08:00:00 Aug 13 04:00 am Aug 13 1:00 am
1221.00 08/13/2018 02:59:12 Aug 12 10:59 pm Aug 12 7:59 pm
1221.00 08/13/2018 01:59:28 Aug 12 09:59 pm Aug 12 6:59 pm
1221.00 08/13/2018 00:59:44 Aug 12 08:59 pm Aug 12 5:59 pm
1269.00 08/13/2018 00:00:00 Aug 12 08:00 pm Aug 12 5:00 pm
1263.00 08/12/2018 22:58:08 Aug 12 06:58 pm Aug 12 3:58 pm
1226.00 08/12/2018 21:58:24 Aug 12 05:58 pm Aug 12 2:58 pm
1221.00 08/12/2018 19:58:56 Aug 12 03:58 pm Aug 12 12:58 pm
1273.00 08/12/2018 18:59:12 Aug 12 02:59 pm Aug 12 11:59 am
1273.00 08/12/2018 17:59:28 Aug 12 01:59 pm Aug 12 10:59 am
1273.00 08/12/2018 16:59:44 Aug 12 12:59 pm Aug 12 9:59 am
1273.00 08/12/2018 16:00:00 Aug 12 12:00 pm Aug 12 9:00 am
1273.00 08/12/2018 14:58:08 Aug 12 10:58 am Aug 12 7:58 am
1273.00 08/12/2018 13:58:24 Aug 12 09:58 am Aug 12 6:58 am
1273.00 08/12/2018 12:58:40 Aug 12 08:58 am Aug 12 5:58 am
1260.00 08/12/2018 11:58:56 Aug 12 07:58 am Aug 12 4:58 am
1273.00 08/12/2018 10:59:12 Aug 12 06:59 am Aug 12 3:59 am
1273.00 08/12/2018 09:59:28 Aug 12 05:59 am Aug 12 2:59 am
1248.00 08/12/2018 08:59:44 Aug 12 04:59 am Aug 12 1:59 am
1260.00 08/12/2018 08:00:00 Aug 12 04:00 am Aug 12 1:00 am
1249.00 08/12/2018 03:58:56 Aug 11 11:58 pm Aug 11 8:58 pm
1273.00 08/12/2018 02:59:12 Aug 11 10:59 pm Aug 11 7:59 pm
1273.00 08/12/2018 01:59:28 Aug 11 09:59 pm Aug 11 6:59 pm
1273.00 08/12/2018 00:59:44 Aug 11 08:59 pm Aug 11 5:59 pm
1273.00 08/12/2018 00:00:00 Aug 11 08:00 pm Aug 11 5:00 pm
1273.00 08/11/2018 22:58:08 Aug 11 06:58 pm Aug 11 3:58 pm
1273.00 08/11/2018 21:58:24 Aug 11 05:58 pm Aug 11 2:58 pm
1273.00 08/11/2018 20:58:40 Aug 11 04:58 pm Aug 11 1:58 pm
1273.00 08/11/2018 19:58:56 Aug 11 03:58 pm Aug 11 12:58 pm
1273.00 08/11/2018 18:59:12 Aug 11 02:59 pm Aug 11 11:59 am
1273.00 08/11/2018 17:59:28 Aug 11 01:59 pm Aug 11 10:59 am
1273.00 08/11/2018 16:59:44 Aug 11 12:59 pm Aug 11 9:59 am
1273.00 08/11/2018 16:00:00 Aug 11 12:00 pm Aug 11 9:00 am
1273.00 08/11/2018 14:58:08 Aug 11 10:58 am Aug 11 7:58 am
1273.00 08/11/2018 13:58:24 Aug 11 09:58 am Aug 11 6:58 am
1273.00 08/11/2018 12:58:40 Aug 11 08:58 am Aug 11 5:58 am
1273.00 08/11/2018 11:58:56 Aug 11 07:58 am Aug 11 4:58 am
1273.00 08/11/2018 10:59:12 Aug 11 06:59 am Aug 11 3:59 am
1273.00 08/11/2018 09:59:28 Aug 11 05:59 am Aug 11 2:59 am
1273.00 08/11/2018 08:59:44 Aug 11 04:59 am Aug 11 1:59 am
1273.00 08/11/2018 08:00:00 Aug 11 04:00 am Aug 11 1:00 am
1273.00 08/11/2018 03:58:56 Aug 10 11:58 pm Aug 10 8:58 pm
1228.00 08/11/2018 02:59:12 Aug 10 10:59 pm Aug 10 7:59 pm
1221.00 08/11/2018 01:59:28 Aug 10 09:59 pm Aug 10 6:59 pm
1221.00 08/11/2018 00:59:44 Aug 10 08:59 pm Aug 10 5:59 pm
1221.00 08/11/2018 00:00:00 Aug 10 08:00 pm Aug 10 5:00 pm
1221.00 08/10/2018 22:58:08 Aug 10 06:58 pm Aug 10 3:58 pm
1188.00 08/10/2018 21:58:24 Aug 10 05:58 pm Aug 10 2:58 pm
1191.00 08/10/2018 20:58:40 Aug 10 04:58 pm Aug 10 1:58 pm
1187.00 08/10/2018 19:58:56 Aug 10 03:58 pm Aug 10 12:58 pm
1187.00 08/10/2018 18:59:12 Aug 10 02:59 pm Aug 10 11:59 am
1187.00 08/10/2018 17:59:28 Aug 10 01:59 pm Aug 10 10:59 am
1187.00 08/10/2018 16:59:44 Aug 10 12:59 pm Aug 10 9:59 am
1144.00 08/10/2018 16:00:00 Aug 10 12:00 pm Aug 10 9:00 am
1110.00 08/10/2018 14:58:08 Aug 10 10:58 am Aug 10 7:58 am
1071.00 08/10/2018 13:58:24 Aug 10 09:58 am Aug 10 6:58 am
997.00 08/10/2018 12:58:40 Aug 10 08:58 am Aug 10 5:58 am
925.00 08/10/2018 11:58:56 Aug 10 07:58 am Aug 10 4:58 am
803.00 08/10/2018 10:59:12 Aug 10 06:59 am Aug 10 3:59 am
691.00 08/10/2018 09:59:28 Aug 10 05:59 am Aug 10 2:59 am
602.00 08/10/2018 08:59:44 Aug 10 04:59 am Aug 10 1:59 am
499.00 08/10/2018 08:00:00 Aug 10 04:00 am Aug 10 1:00 am
255.00 08/10/2018 03:58:56 Aug 9 11:58 pm Aug 9 8:58 pm
255.00 08/10/2018 02:59:12 Aug 9 10:59 pm Aug 9 7:59 pm
386.00 08/10/2018 01:59:28 Aug 9 09:59 pm Aug 9 6:59 pm
78.00 08/10/2018 00:00:00 Aug 9 08:00 pm Aug 9 5:00 pm
460.00 08/09/2018 22:58:08 Aug 9 06:58 pm Aug 9 3:58 pm
452.00 08/09/2018 21:58:24 Aug 9 05:58 pm Aug 9 2:58 pm
462.00 08/09/2018 20:58:40 Aug 9 04:58 pm Aug 9 1:58 pm
432.00 08/09/2018 19:58:56 Aug 9 03:58 pm Aug 9 12:58 pm
455.00 08/09/2018 18:59:12 Aug 9 02:59 pm Aug 9 11:59 am
447.00 08/09/2018 17:59:28 Aug 9 01:59 pm Aug 9 10:59 am
440.00 08/09/2018 16:59:44 Aug 9 12:59 pm Aug 9 9:59 am
465.00 08/09/2018 16:00:00 Aug 9 12:00 pm Aug 9 9:00 am
476.00 08/09/2018 13:58:24 Aug 9 09:58 am Aug 9 6:58 am
467.00 08/09/2018 12:58:40 Aug 9 08:58 am Aug 9 5:58 am
444.00 08/09/2018 11:58:56 Aug 9 07:58 am Aug 9 4:58 am
454.00 08/09/2018 09:59:28 Aug 9 05:59 am Aug 9 2:59 am
465.00 08/09/2018 08:59:44 Aug 9 04:59 am Aug 9 1:59 am
483.00 08/09/2018 08:00:00 Aug 9 04:00 am Aug 9 1:00 am
486.00 08/09/2018 03:58:56 Aug 8 11:58 pm Aug 8 8:58 pm
637.00 08/09/2018 01:59:28 Aug 8 09:59 pm Aug 8 6:59 pm
120.00 08/09/2018 00:00:00 Aug 8 08:00 pm Aug 8 5:00 pm
342.00 08/08/2018 22:58:08 Aug 8 06:58 pm Aug 8 3:58 pm
447.00 08/08/2018 21:58:24 Aug 8 05:58 pm Aug 8 2:58 pm
447.00 08/08/2018 20:58:40 Aug 8 04:58 pm Aug 8 1:58 pm
448.00 08/08/2018 19:58:56 Aug 8 03:58 pm Aug 8 12:58 pm
445.00 08/08/2018 18:59:12 Aug 8 02:59 pm Aug 8 11:59 am
454.00 08/08/2018 17:59:28 Aug 8 01:59 pm Aug 8 10:59 am
451.00 08/08/2018 16:59:44 Aug 8 12:59 pm Aug 8 9:59 am
461.00 08/08/2018 16:00:00 Aug 8 12:00 pm Aug 8 9:00 am
420.00 08/08/2018 14:58:08 Aug 8 10:58 am Aug 8 7:58 am
458.00 08/08/2018 13:58:24 Aug 8 09:58 am Aug 8 6:58 am
460.00 08/08/2018 12:58:40 Aug 8 08:58 am Aug 8 5:58 am
466.00 08/08/2018 11:58:56 Aug 8 07:58 am Aug 8 4:58 am
467.00 08/08/2018 10:59:12 Aug 8 06:59 am Aug 8 3:59 am
461.00 08/08/2018 09:59:28 Aug 8 05:59 am Aug 8 2:59 am
480.00 08/08/2018 08:59:44 Aug 8 04:59 am Aug 8 1:59 am
693.00 08/08/2018 08:00:00 Aug 8 04:00 am Aug 8 1:00 am
578.00 08/08/2018 03:58:56 Aug 7 11:58 pm Aug 7 8:58 pm
618.00 08/08/2018 02:59:12 Aug 7 10:59 pm Aug 7 7:59 pm
687.00 08/08/2018 01:59:28 Aug 7 09:59 pm Aug 7 6:59 pm
473.00 08/08/2018 00:00:00 Aug 7 08:00 pm Aug 7 5:00 pm
487.00 08/07/2018 22:58:08 Aug 7 06:58 pm Aug 7 3:58 pm
488.00 08/07/2018 21:58:24 Aug 7 05:58 pm Aug 7 2:58 pm
469.00 08/07/2018 20:58:40 Aug 7 04:58 pm Aug 7 1:58 pm
357.00 08/07/2018 19:58:56 Aug 7 03:58 pm Aug 7 12:58 pm
477.00 08/07/2018 18:59:12 Aug 7 02:59 pm Aug 7 11:59 am
252.00 08/07/2018 17:59:28 Aug 7 01:59 pm Aug 7 10:59 am
526.00 08/07/2018 16:59:44 Aug 7 12:59 pm Aug 7 9:59 am
466.00 08/07/2018 16:00:00 Aug 7 12:00 pm Aug 7 9:00 am
464.00 08/07/2018 14:58:08 Aug 7 10:58 am Aug 7 7:58 am
478.00 08/07/2018 13:58:24 Aug 7 09:58 am Aug 7 6:58 am
333.00 08/07/2018 12:58:40 Aug 7 08:58 am Aug 7 5:58 am
461.00 08/07/2018 11:58:56 Aug 7 07:58 am Aug 7 4:58 am
479.00 08/07/2018 10:59:12 Aug 7 06:59 am Aug 7 3:59 am
464.00 08/07/2018 09:59:28 Aug 7 05:59 am Aug 7 2:59 am
471.00 08/07/2018 08:59:44 Aug 7 04:59 am Aug 7 1:59 am
585.00 08/07/2018 08:00:00 Aug 7 04:00 am Aug 7 1:00 am
578.00 08/07/2018 03:58:56 Aug 6 11:58 pm Aug 6 8:58 pm
616.00 08/07/2018 02:59:12 Aug 6 10:59 pm Aug 6 7:59 pm
555.00 08/07/2018 01:59:28 Aug 6 09:59 pm Aug 6 6:59 pm
474.00 08/07/2018 00:00:00 Aug 6 08:00 pm Aug 6 5:00 pm
477.00 08/06/2018 22:58:08 Aug 6 06:58 pm Aug 6 3:58 pm
477.00 08/06/2018 21:58:24 Aug 6 05:58 pm Aug 6 2:58 pm
236.00 08/06/2018 20:58:40 Aug 6 04:58 pm Aug 6 1:58 pm
456.00 08/06/2018 19:58:56 Aug 6 03:58 pm Aug 6 12:58 pm
474.00 08/06/2018 18:59:12 Aug 6 02:59 pm Aug 6 11:59 am
459.00 08/06/2018 16:00:00 Aug 6 12:00 pm Aug 6 9:00 am
464.00 08/06/2018 14:58:08 Aug 6 10:58 am Aug 6 7:58 am
461.00 08/06/2018 13:58:24 Aug 6 09:58 am Aug 6 6:58 am
479.00 08/06/2018 12:58:40 Aug 6 08:58 am Aug 6 5:58 am
453.00 08/06/2018 11:58:56 Aug 6 07:58 am Aug 6 4:58 am
472.00 08/06/2018 10:59:12 Aug 6 06:59 am Aug 6 3:59 am
493.00 08/06/2018 09:59:28 Aug 6 05:59 am Aug 6 2:59 am
490.00 08/06/2018 08:59:44 Aug 6 04:59 am Aug 6 1:59 am
485.00 08/06/2018 08:00:00 Aug 6 04:00 am Aug 6 1:00 am
624.00 08/06/2018 03:58:56 Aug 5 11:58 pm Aug 5 8:58 pm
476.00 08/06/2018 02:59:12 Aug 5 10:59 pm Aug 5 7:59 pm
396.00 08/06/2018 01:59:28 Aug 5 09:59 pm Aug 5 6:59 pm
68.00 08/06/2018 00:59:44 Aug 5 08:59 pm Aug 5 5:59 pm
470.00 08/06/2018 00:00:00 Aug 5 08:00 pm Aug 5 5:00 pm
345.00 08/05/2018 22:58:08 Aug 5 06:58 pm Aug 5 3:58 pm
488.00 08/05/2018 21:58:24 Aug 5 05:58 pm Aug 5 2:58 pm
295.00 08/05/2018 20:58:40 Aug 5 04:58 pm Aug 5 1:58 pm
446.00 08/05/2018 19:58:56 Aug 5 03:58 pm Aug 5 12:58 pm
444.00 08/05/2018 18:59:12 Aug 5 02:59 pm Aug 5 11:59 am
465.00 08/05/2018 17:59:28 Aug 5 01:59 pm Aug 5 10:59 am
455.00 08/05/2018 16:59:44 Aug 5 12:59 pm Aug 5 9:59 am
452.00 08/05/2018 16:00:00 Aug 5 12:00 pm Aug 5 9:00 am
425.00 08/05/2018 14:58:08 Aug 5 10:58 am Aug 5 7:58 am
453.00 08/05/2018 13:58:24 Aug 5 09:58 am Aug 5 6:58 am
466.00 08/05/2018 12:58:40 Aug 5 08:58 am Aug 5 5:58 am
416.00 08/05/2018 11:58:56 Aug 5 07:58 am Aug 5 4:58 am
479.00 08/05/2018 10:59:12 Aug 5 06:59 am Aug 5 3:59 am
470.00 08/05/2018 09:59:28 Aug 5 05:59 am Aug 5 2:59 am
591.00 08/05/2018 08:59:44 Aug 5 04:59 am Aug 5 1:59 am
493.00 08/05/2018 08:00:00 Aug 5 04:00 am Aug 5 1:00 am
613.00 08/05/2018 03:58:56 Aug 4 11:58 pm Aug 4 8:58 pm
530.00 08/05/2018 02:59:12 Aug 4 10:59 pm Aug 4 7:59 pm
35.00 08/05/2018 01:59:28 Aug 4 09:59 pm Aug 4 6:59 pm
240.00 08/05/2018 00:59:44 Aug 4 08:59 pm Aug 4 5:59 pm
449.00 08/05/2018 00:00:00 Aug 4 08:00 pm Aug 4 5:00 pm
339.00 08/04/2018 22:58:08 Aug 4 06:58 pm Aug 4 3:58 pm
473.00 08/04/2018 21:58:24 Aug 4 05:58 pm Aug 4 2:58 pm
450.00 08/04/2018 20:58:40 Aug 4 04:58 pm Aug 4 1:58 pm
324.00 08/04/2018 19:58:56 Aug 4 03:58 pm Aug 4 12:58 pm
460.00 08/04/2018 18:59:12 Aug 4 02:59 pm Aug 4 11:59 am
421.00 08/04/2018 17:59:28 Aug 4 01:59 pm Aug 4 10:59 am
444.00 08/04/2018 16:59:44 Aug 4 12:59 pm Aug 4 9:59 am
493.00 08/03/2018 22:58:08 Aug 3 06:58 pm Aug 3 3:58 pm
423.00 08/03/2018 21:58:24 Aug 3 05:58 pm Aug 3 2:58 pm
457.00 08/03/2018 20:58:40 Aug 3 04:58 pm Aug 3 1:58 pm
455.00 08/03/2018 19:58:56 Aug 3 03:58 pm Aug 3 12:58 pm
462.00 08/03/2018 18:59:12 Aug 3 02:59 pm Aug 3 11:59 am
455.00 08/03/2018 17:59:28 Aug 3 01:59 pm Aug 3 10:59 am
461.00 08/03/2018 16:59:44 Aug 3 12:59 pm Aug 3 9:59 am
463.00 08/03/2018 10:59:12 Aug 3 06:59 am Aug 3 3:59 am
457.00 08/03/2018 09:59:28 Aug 3 05:59 am Aug 3 2:59 am
457.00 08/03/2018 08:59:44 Aug 3 04:59 am Aug 3 1:59 am
468.00 08/03/2018 08:00:00 Aug 3 04:00 am Aug 3 1:00 am
573.00 08/03/2018 03:58:56 Aug 2 11:58 pm Aug 2 8:58 pm
626.00 08/03/2018 02:59:12 Aug 2 10:59 pm Aug 2 7:59 pm
491.00 08/03/2018 01:59:28 Aug 2 09:59 pm Aug 2 6:59 pm
221.00 08/03/2018 00:59:44 Aug 2 08:59 pm Aug 2 5:59 pm
479.00 08/03/2018 00:00:00 Aug 2 08:00 pm Aug 2 5:00 pm
455.00 08/02/2018 22:58:08 Aug 2 06:58 pm Aug 2 3:58 pm
464.00 08/02/2018 21:58:24 Aug 2 05:58 pm Aug 2 2:58 pm
475.00 08/02/2018 20:58:40 Aug 2 04:58 pm Aug 2 1:58 pm
490.00 08/02/2018 19:58:56 Aug 2 03:58 pm Aug 2 12:58 pm
501.00 08/02/2018 18:59:12 Aug 2 02:59 pm Aug 2 11:59 am
485.00 08/02/2018 17:59:28 Aug 2 01:59 pm Aug 2 10:59 am
477.00 08/02/2018 16:59:44 Aug 2 12:59 pm Aug 2 9:59 am
471.00 08/02/2018 16:00:00 Aug 2 12:00 pm Aug 2 9:00 am
507.00 08/02/2018 14:58:08 Aug 2 10:58 am Aug 2 7:58 am
456.00 08/02/2018 12:58:40 Aug 2 08:58 am Aug 2 5:58 am
467.00 08/02/2018 11:58:56 Aug 2 07:58 am Aug 2 4:58 am
452.00 08/02/2018 09:59:28 Aug 2 05:59 am Aug 2 2:59 am
504.00 08/02/2018 08:00:00 Aug 2 04:00 am Aug 2 1:00 am
563.00 08/02/2018 06:58:08 Aug 2 02:58 am Aug 1 11:58 pm
622.00 08/02/2018 02:59:12 Aug 1 10:59 pm Aug 1 7:59 pm

Status

Gauge History

Times listed in GMT 24h, ET and PT hours provided for convenience Graphs in GMT. Readings of "n/a" constitute a frozen gauge or gauge error.
Reading Updated (GMT) Eastern Pacific Comment
too low 08/19/2018 00:59:44 Aug 18 08:59 pm Aug 18 5:59 pm
too low 08/19/2018 00:00:00 Aug 18 08:00 pm Aug 18 5:00 pm
too low 08/18/2018 21:58:24 Aug 18 05:58 pm Aug 18 2:58 pm
too low 08/18/2018 19:58:56 Aug 18 03:58 pm Aug 18 12:58 pm
too low 08/18/2018 17:59:28 Aug 18 01:59 pm Aug 18 10:59 am
too low 08/18/2018 16:59:44 Aug 18 12:59 pm Aug 18 9:59 am
too low 08/18/2018 16:00:00 Aug 18 12:00 pm Aug 18 9:00 am
too low 08/18/2018 14:58:08 Aug 18 10:58 am Aug 18 7:58 am
too low 08/18/2018 13:58:24 Aug 18 09:58 am Aug 18 6:58 am
too low 08/18/2018 12:58:40 Aug 18 08:58 am Aug 18 5:58 am
too low 08/18/2018 11:58:56 Aug 18 07:58 am Aug 18 4:58 am
too low 08/18/2018 10:59:12 Aug 18 06:59 am Aug 18 3:59 am
too low 08/18/2018 09:59:28 Aug 18 05:59 am Aug 18 2:59 am
too low 08/18/2018 08:00:00 Aug 18 04:00 am Aug 18 1:00 am
running 08/18/2018 03:58:56 Aug 17 11:58 pm Aug 17 8:58 pm
running 08/18/2018 02:59:12 Aug 17 10:59 pm Aug 17 7:59 pm
too low 08/18/2018 00:59:44 Aug 17 08:59 pm Aug 17 5:59 pm
too low 08/18/2018 00:00:00 Aug 17 08:00 pm Aug 17 5:00 pm
too low 08/17/2018 22:58:08 Aug 17 06:58 pm Aug 17 3:58 pm
too low 08/17/2018 21:58:24 Aug 17 05:58 pm Aug 17 2:58 pm
too low 08/17/2018 20:58:40 Aug 17 04:58 pm Aug 17 1:58 pm
too low 08/17/2018 19:58:56 Aug 17 03:58 pm Aug 17 12:58 pm
too low 08/17/2018 18:59:12 Aug 17 02:59 pm Aug 17 11:59 am
too low 08/17/2018 17:59:28 Aug 17 01:59 pm Aug 17 10:59 am
too low 08/17/2018 16:59:44 Aug 17 12:59 pm Aug 17 9:59 am
too low 08/17/2018 16:00:00 Aug 17 12:00 pm Aug 17 9:00 am
too low 08/17/2018 14:58:08 Aug 17 10:58 am Aug 17 7:58 am
too low 08/17/2018 13:58:24 Aug 17 09:58 am Aug 17 6:58 am
too low 08/17/2018 12:58:40 Aug 17 08:58 am Aug 17 5:58 am
too low 08/17/2018 11:58:56 Aug 17 07:58 am Aug 17 4:58 am
too low 08/17/2018 10:59:12 Aug 17 06:59 am Aug 17 3:59 am
too low 08/17/2018 09:59:28 Aug 17 05:59 am Aug 17 2:59 am
too low 08/17/2018 08:59:44 Aug 17 04:59 am Aug 17 1:59 am
too low 08/17/2018 08:00:00 Aug 17 04:00 am Aug 17 1:00 am
too low 08/17/2018 03:58:56 Aug 16 11:58 pm Aug 16 8:58 pm
running 08/17/2018 02:59:12 Aug 16 10:59 pm Aug 16 7:59 pm
too low 08/17/2018 01:59:28 Aug 16 09:59 pm Aug 16 6:59 pm
too low 08/17/2018 00:59:44 Aug 16 08:59 pm Aug 16 5:59 pm
too low 08/17/2018 00:00:00 Aug 16 08:00 pm Aug 16 5:00 pm
too low 08/16/2018 22:58:08 Aug 16 06:58 pm Aug 16 3:58 pm
too low 08/16/2018 21:58:24 Aug 16 05:58 pm Aug 16 2:58 pm
too low 08/16/2018 20:58:40 Aug 16 04:58 pm Aug 16 1:58 pm
too low 08/16/2018 19:58:56 Aug 16 03:58 pm Aug 16 12:58 pm
too low 08/16/2018 18:59:12 Aug 16 02:59 pm Aug 16 11:59 am
too low 08/16/2018 17:59:28 Aug 16 01:59 pm Aug 16 10:59 am
too low 08/16/2018 16:59:44 Aug 16 12:59 pm Aug 16 9:59 am
too low 08/16/2018 16:00:00 Aug 16 12:00 pm Aug 16 9:00 am
too low 08/16/2018 14:58:08 Aug 16 10:58 am Aug 16 7:58 am
too low 08/16/2018 13:58:24 Aug 16 09:58 am Aug 16 6:58 am
too low 08/16/2018 12:58:40 Aug 16 08:58 am Aug 16 5:58 am
too low 08/16/2018 11:58:56 Aug 16 07:58 am Aug 16 4:58 am
too low 08/16/2018 10:59:12 Aug 16 06:59 am Aug 16 3:59 am
too low 08/16/2018 09:59:28 Aug 16 05:59 am Aug 16 2:59 am
too low 08/16/2018 08:59:44 Aug 16 04:59 am Aug 16 1:59 am
too low 08/16/2018 08:00:00 Aug 16 04:00 am Aug 16 1:00 am
running 08/16/2018 03:58:56 Aug 15 11:58 pm Aug 15 8:58 pm
running 08/16/2018 02:59:12 Aug 15 10:59 pm Aug 15 7:59 pm
too low 08/16/2018 01:59:28 Aug 15 09:59 pm Aug 15 6:59 pm
too low 08/16/2018 00:59:44 Aug 15 08:59 pm Aug 15 5:59 pm
too low 08/16/2018 00:00:00 Aug 15 08:00 pm Aug 15 5:00 pm
too low 08/15/2018 22:58:08 Aug 15 06:58 pm Aug 15 3:58 pm
too low 08/15/2018 21:58:24 Aug 15 05:58 pm Aug 15 2:58 pm
too low 08/15/2018 20:58:40 Aug 15 04:58 pm Aug 15 1:58 pm
too low 08/15/2018 19:58:56 Aug 15 03:58 pm Aug 15 12:58 pm
too low 08/15/2018 18:59:12 Aug 15 02:59 pm Aug 15 11:59 am
too low 08/15/2018 17:59:28 Aug 15 01:59 pm Aug 15 10:59 am
too low 08/15/2018 16:59:44 Aug 15 12:59 pm Aug 15 9:59 am
too low 08/15/2018 16:00:00 Aug 15 12:00 pm Aug 15 9:00 am
too low 08/15/2018 14:58:08 Aug 15 10:58 am Aug 15 7:58 am
too low 08/14/2018 22:58:08 Aug 14 06:58 pm Aug 14 3:58 pm
too low 08/14/2018 21:58:24 Aug 14 05:58 pm Aug 14 2:58 pm
too low 08/14/2018 19:58:56 Aug 14 03:58 pm Aug 14 12:58 pm
too low 08/14/2018 18:59:12 Aug 14 02:59 pm Aug 14 11:59 am
too low 08/14/2018 17:59:28 Aug 14 01:59 pm Aug 14 10:59 am
too low 08/14/2018 16:59:44 Aug 14 12:59 pm Aug 14 9:59 am
too low 08/14/2018 16:00:00 Aug 14 12:00 pm Aug 14 9:00 am
too low 08/14/2018 13:58:24 Aug 14 09:58 am Aug 14 6:58 am
running 08/14/2018 12:58:40 Aug 14 08:58 am Aug 14 5:58 am
running 08/14/2018 10:59:12 Aug 14 06:59 am Aug 14 3:59 am
running 08/14/2018 09:59:28 Aug 14 05:59 am Aug 14 2:59 am
running 08/14/2018 08:59:44 Aug 14 04:59 am Aug 14 1:59 am
running 08/14/2018 06:58:08 Aug 14 02:58 am Aug 13 11:58 pm
running 08/14/2018 03:58:56 Aug 13 11:58 pm Aug 13 8:58 pm
running 08/14/2018 01:59:28 Aug 13 09:59 pm Aug 13 6:59 pm
running 08/14/2018 00:00:00 Aug 13 08:00 pm Aug 13 5:00 pm
running 08/13/2018 22:58:08 Aug 13 06:58 pm Aug 13 3:58 pm
running 08/13/2018 21:58:24 Aug 13 05:58 pm Aug 13 2:58 pm
running 08/13/2018 19:58:56 Aug 13 03:58 pm Aug 13 12:58 pm
running 08/13/2018 18:59:12 Aug 13 02:59 pm Aug 13 11:59 am
running 08/13/2018 17:59:28 Aug 13 01:59 pm Aug 13 10:59 am
running 08/13/2018 16:59:44 Aug 13 12:59 pm Aug 13 9:59 am
running 08/13/2018 16:00:00 Aug 13 12:00 pm Aug 13 9:00 am
running 08/13/2018 14:58:08 Aug 13 10:58 am Aug 13 7:58 am
running 08/13/2018 13:58:24 Aug 13 09:58 am Aug 13 6:58 am
running 08/13/2018 12:58:40 Aug 13 08:58 am Aug 13 5:58 am
running 08/13/2018 11:58:56 Aug 13 07:58 am Aug 13 4:58 am
running 08/13/2018 09:59:28 Aug 13 05:59 am Aug 13 2:59 am
running 08/13/2018 08:59:44 Aug 13 04:59 am Aug 13 1:59 am
running 08/13/2018 08:00:00 Aug 13 04:00 am Aug 13 1:00 am
running 08/13/2018 02:59:12 Aug 12 10:59 pm Aug 12 7:59 pm
running 08/13/2018 01:59:28 Aug 12 09:59 pm Aug 12 6:59 pm
running 08/13/2018 00:59:44 Aug 12 08:59 pm Aug 12 5:59 pm
running 08/13/2018 00:00:00 Aug 12 08:00 pm Aug 12 5:00 pm
running 08/12/2018 22:58:08 Aug 12 06:58 pm Aug 12 3:58 pm
running 08/12/2018 21:58:24 Aug 12 05:58 pm Aug 12 2:58 pm
running 08/12/2018 19:58:56 Aug 12 03:58 pm Aug 12 12:58 pm
running 08/12/2018 18:59:12 Aug 12 02:59 pm Aug 12 11:59 am
running 08/12/2018 17:59:28 Aug 12 01:59 pm Aug 12 10:59 am
running 08/12/2018 16:59:44 Aug 12 12:59 pm Aug 12 9:59 am
running 08/12/2018 16:00:00 Aug 12 12:00 pm Aug 12 9:00 am
running 08/12/2018 14:58:08 Aug 12 10:58 am Aug 12 7:58 am
running 08/12/2018 13:58:24 Aug 12 09:58 am Aug 12 6:58 am
running 08/12/2018 12:58:40 Aug 12 08:58 am Aug 12 5:58 am
running 08/12/2018 11:58:56 Aug 12 07:58 am Aug 12 4:58 am
running 08/12/2018 10:59:12 Aug 12 06:59 am Aug 12 3:59 am
running 08/12/2018 09:59:28 Aug 12 05:59 am Aug 12 2:59 am
running 08/12/2018 08:59:44 Aug 12 04:59 am Aug 12 1:59 am
running 08/12/2018 08:00:00 Aug 12 04:00 am Aug 12 1:00 am
running 08/12/2018 03:58:56 Aug 11 11:58 pm Aug 11 8:58 pm
running 08/12/2018 02:59:12 Aug 11 10:59 pm Aug 11 7:59 pm
running 08/12/2018 01:59:28 Aug 11 09:59 pm Aug 11 6:59 pm
running 08/12/2018 00:59:44 Aug 11 08:59 pm Aug 11 5:59 pm
running 08/12/2018 00:00:00 Aug 11 08:00 pm Aug 11 5:00 pm
running 08/11/2018 22:58:08 Aug 11 06:58 pm Aug 11 3:58 pm
running 08/11/2018 21:58:24 Aug 11 05:58 pm Aug 11 2:58 pm
running 08/11/2018 20:58:40 Aug 11 04:58 pm Aug 11 1:58 pm
running 08/11/2018 19:58:56 Aug 11 03:58 pm Aug 11 12:58 pm
running 08/11/2018 18:59:12 Aug 11 02:59 pm Aug 11 11:59 am
running 08/11/2018 17:59:28 Aug 11 01:59 pm Aug 11 10:59 am
running 08/11/2018 16:59:44 Aug 11 12:59 pm Aug 11 9:59 am
running 08/11/2018 16:00:00 Aug 11 12:00 pm Aug 11 9:00 am
running 08/11/2018 14:58:08 Aug 11 10:58 am Aug 11 7:58 am
running 08/11/2018 13:58:24 Aug 11 09:58 am Aug 11 6:58 am
running 08/11/2018 12:58:40 Aug 11 08:58 am Aug 11 5:58 am
running 08/11/2018 11:58:56 Aug 11 07:58 am Aug 11 4:58 am
running 08/11/2018 10:59:12 Aug 11 06:59 am Aug 11 3:59 am
running 08/11/2018 09:59:28 Aug 11 05:59 am Aug 11 2:59 am
running 08/11/2018 08:59:44 Aug 11 04:59 am Aug 11 1:59 am
running 08/11/2018 08:00:00 Aug 11 04:00 am Aug 11 1:00 am
running 08/11/2018 03:58:56 Aug 10 11:58 pm Aug 10 8:58 pm
running 08/11/2018 02:59:12 Aug 10 10:59 pm Aug 10 7:59 pm
running 08/11/2018 01:59:28 Aug 10 09:59 pm Aug 10 6:59 pm
running 08/11/2018 00:59:44 Aug 10 08:59 pm Aug 10 5:59 pm
running 08/11/2018 00:00:00 Aug 10 08:00 pm Aug 10 5:00 pm
running 08/10/2018 22:58:08 Aug 10 06:58 pm Aug 10 3:58 pm
running 08/10/2018 21:58:24 Aug 10 05:58 pm Aug 10 2:58 pm
running 08/10/2018 20:58:40 Aug 10 04:58 pm Aug 10 1:58 pm
running 08/10/2018 19:58:56 Aug 10 03:58 pm Aug 10 12:58 pm
running 08/10/2018 18:59:12 Aug 10 02:59 pm Aug 10 11:59 am
running 08/10/2018 17:59:28 Aug 10 01:59 pm Aug 10 10:59 am
running 08/10/2018 16:59:44 Aug 10 12:59 pm Aug 10 9:59 am
running 08/10/2018 16:00:00 Aug 10 12:00 pm Aug 10 9:00 am
running 08/10/2018 14:58:08 Aug 10 10:58 am Aug 10 7:58 am
running 08/10/2018 13:58:24 Aug 10 09:58 am Aug 10 6:58 am
running 08/10/2018 12:58:40 Aug 10 08:58 am Aug 10 5:58 am
running 08/10/2018 11:58:56 Aug 10 07:58 am Aug 10 4:58 am
running 08/10/2018 10:59:12 Aug 10 06:59 am Aug 10 3:59 am
running 08/10/2018 09:59:28 Aug 10 05:59 am Aug 10 2:59 am
running 08/10/2018 08:59:44 Aug 10 04:59 am Aug 10 1:59 am
too low 08/10/2018 08:00:00 Aug 10 04:00 am Aug 10 1:00 am
too low 08/10/2018 03:58:56 Aug 9 11:58 pm Aug 9 8:58 pm
too low 08/10/2018 02:59:12 Aug 9 10:59 pm Aug 9 7:59 pm
too low 08/10/2018 01:59:28 Aug 9 09:59 pm Aug 9 6:59 pm
too low 08/10/2018 00:00:00 Aug 9 08:00 pm Aug 9 5:00 pm
too low 08/09/2018 22:58:08 Aug 9 06:58 pm Aug 9 3:58 pm
too low 08/09/2018 21:58:24 Aug 9 05:58 pm Aug 9 2:58 pm
too low 08/09/2018 20:58:40 Aug 9 04:58 pm Aug 9 1:58 pm
too low 08/09/2018 19:58:56 Aug 9 03:58 pm Aug 9 12:58 pm
too low 08/09/2018 18:59:12 Aug 9 02:59 pm Aug 9 11:59 am
too low 08/09/2018 17:59:28 Aug 9 01:59 pm Aug 9 10:59 am
too low 08/09/2018 16:59:44 Aug 9 12:59 pm Aug 9 9:59 am
too low 08/09/2018 16:00:00 Aug 9 12:00 pm Aug 9 9:00 am
too low 08/09/2018 13:58:24 Aug 9 09:58 am Aug 9 6:58 am
too low 08/09/2018 12:58:40 Aug 9 08:58 am Aug 9 5:58 am
too low 08/09/2018 11:58:56 Aug 9 07:58 am Aug 9 4:58 am
too low 08/09/2018 09:59:28 Aug 9 05:59 am Aug 9 2:59 am
too low 08/09/2018 08:59:44 Aug 9 04:59 am Aug 9 1:59 am
too low 08/09/2018 08:00:00 Aug 9 04:00 am Aug 9 1:00 am
too low 08/09/2018 03:58:56 Aug 8 11:58 pm Aug 8 8:58 pm
running 08/09/2018 01:59:28 Aug 8 09:59 pm Aug 8 6:59 pm
too low 08/09/2018 00:00:00 Aug 8 08:00 pm Aug 8 5:00 pm
too low 08/08/2018 22:58:08 Aug 8 06:58 pm Aug 8 3:58 pm
too low 08/08/2018 21:58:24 Aug 8 05:58 pm Aug 8 2:58 pm
too low 08/08/2018 20:58:40 Aug 8 04:58 pm Aug 8 1:58 pm
too low 08/08/2018 19:58:56 Aug 8 03:58 pm Aug 8 12:58 pm
too low 08/08/2018 18:59:12 Aug 8 02:59 pm Aug 8 11:59 am
too low 08/08/2018 17:59:28 Aug 8 01:59 pm Aug 8 10:59 am
too low 08/08/2018 16:59:44 Aug 8 12:59 pm Aug 8 9:59 am
too low 08/08/2018 16:00:00 Aug 8 12:00 pm Aug 8 9:00 am
too low 08/08/2018 14:58:08 Aug 8 10:58 am Aug 8 7:58 am
too low 08/08/2018 13:58:24 Aug 8 09:58 am Aug 8 6:58 am
too low 08/08/2018 12:58:40 Aug 8 08:58 am Aug 8 5:58 am
too low 08/08/2018 11:58:56 Aug 8 07:58 am Aug 8 4:58 am
too low 08/08/2018 10:59:12 Aug 8 06:59 am Aug 8 3:59 am
too low 08/08/2018 09:59:28 Aug 8 05:59 am Aug 8 2:59 am
too low 08/08/2018 08:59:44 Aug 8 04:59 am Aug 8 1:59 am
running 08/08/2018 08:00:00 Aug 8 04:00 am Aug 8 1:00 am
too low 08/08/2018 03:58:56 Aug 7 11:58 pm Aug 7 8:58 pm
running 08/08/2018 02:59:12 Aug 7 10:59 pm Aug 7 7:59 pm
running 08/08/2018 01:59:28 Aug 7 09:59 pm Aug 7 6:59 pm
too low 08/08/2018 00:00:00 Aug 7 08:00 pm Aug 7 5:00 pm
too low 08/07/2018 22:58:08 Aug 7 06:58 pm Aug 7 3:58 pm
too low 08/07/2018 21:58:24 Aug 7 05:58 pm Aug 7 2:58 pm
too low 08/07/2018 20:58:40 Aug 7 04:58 pm Aug 7 1:58 pm
too low 08/07/2018 19:58:56 Aug 7 03:58 pm Aug 7 12:58 pm
too low 08/07/2018 18:59:12 Aug 7 02:59 pm Aug 7 11:59 am
too low 08/07/2018 17:59:28 Aug 7 01:59 pm Aug 7 10:59 am
too low 08/07/2018 16:59:44 Aug 7 12:59 pm Aug 7 9:59 am
too low 08/07/2018 16:00:00 Aug 7 12:00 pm Aug 7 9:00 am
too low 08/07/2018 14:58:08 Aug 7 10:58 am Aug 7 7:58 am
too low 08/07/2018 13:58:24 Aug 7 09:58 am Aug 7 6:58 am
too low 08/07/2018 12:58:40 Aug 7 08:58 am Aug 7 5:58 am
too low 08/07/2018 11:58:56 Aug 7 07:58 am Aug 7 4:58 am
too low 08/07/2018 10:59:12 Aug 7 06:59 am Aug 7 3:59 am
too low 08/07/2018 09:59:28 Aug 7 05:59 am Aug 7 2:59 am
too low 08/07/2018 08:59:44 Aug 7 04:59 am Aug 7 1:59 am
too low 08/07/2018 08:00:00 Aug 7 04:00 am Aug 7 1:00 am
too low 08/07/2018 03:58:56 Aug 6 11:58 pm Aug 6 8:58 pm
running 08/07/2018 02:59:12 Aug 6 10:59 pm Aug 6 7:59 pm
too low 08/07/2018 01:59:28 Aug 6 09:59 pm Aug 6 6:59 pm
too low 08/07/2018 00:00:00 Aug 6 08:00 pm Aug 6 5:00 pm
too low 08/06/2018 22:58:08 Aug 6 06:58 pm Aug 6 3:58 pm
too low 08/06/2018 21:58:24 Aug 6 05:58 pm Aug 6 2:58 pm
too low 08/06/2018 20:58:40 Aug 6 04:58 pm Aug 6 1:58 pm
too low 08/06/2018 19:58:56 Aug 6 03:58 pm Aug 6 12:58 pm
too low 08/06/2018 18:59:12 Aug 6 02:59 pm Aug 6 11:59 am
too low 08/06/2018 16:00:00 Aug 6 12:00 pm Aug 6 9:00 am
too low 08/06/2018 14:58:08 Aug 6 10:58 am Aug 6 7:58 am
too low 08/06/2018 13:58:24 Aug 6 09:58 am Aug 6 6:58 am
too low 08/06/2018 12:58:40 Aug 6 08:58 am Aug 6 5:58 am
too low 08/06/2018 11:58:56 Aug 6 07:58 am Aug 6 4:58 am
too low 08/06/2018 10:59:12 Aug 6 06:59 am Aug 6 3:59 am
too low 08/06/2018 09:59:28 Aug 6 05:59 am Aug 6 2:59 am
too low 08/06/2018 08:59:44 Aug 6 04:59 am Aug 6 1:59 am
too low 08/06/2018 08:00:00 Aug 6 04:00 am Aug 6 1:00 am
running 08/06/2018 03:58:56 Aug 5 11:58 pm Aug 5 8:58 pm
too low 08/06/2018 02:59:12 Aug 5 10:59 pm Aug 5 7:59 pm
too low 08/06/2018 01:59:28 Aug 5 09:59 pm Aug 5 6:59 pm
too low 08/06/2018 00:59:44 Aug 5 08:59 pm Aug 5 5:59 pm
too low 08/06/2018 00:00:00 Aug 5 08:00 pm Aug 5 5:00 pm
too low 08/05/2018 22:58:08 Aug 5 06:58 pm Aug 5 3:58 pm
too low 08/05/2018 21:58:24 Aug 5 05:58 pm Aug 5 2:58 pm
too low 08/05/2018 20:58:40 Aug 5 04:58 pm Aug 5 1:58 pm
too low 08/05/2018 19:58:56 Aug 5 03:58 pm Aug 5 12:58 pm
too low 08/05/2018 18:59:12 Aug 5 02:59 pm Aug 5 11:59 am
too low 08/05/2018 17:59:28 Aug 5 01:59 pm Aug 5 10:59 am
too low 08/05/2018 16:59:44 Aug 5 12:59 pm Aug 5 9:59 am
too low 08/05/2018 16:00:00 Aug 5 12:00 pm Aug 5 9:00 am
too low 08/05/2018 14:58:08 Aug 5 10:58 am Aug 5 7:58 am
too low 08/05/2018 13:58:24 Aug 5 09:58 am Aug 5 6:58 am
too low 08/05/2018 12:58:40 Aug 5 08:58 am Aug 5 5:58 am
too low 08/05/2018 11:58:56 Aug 5 07:58 am Aug 5 4:58 am
too low 08/05/2018 10:59:12 Aug 5 06:59 am Aug 5 3:59 am
too low 08/05/2018 09:59:28 Aug 5 05:59 am Aug 5 2:59 am
too low 08/05/2018 08:59:44 Aug 5 04:59 am Aug 5 1:59 am
too low 08/05/2018 08:00:00 Aug 5 04:00 am Aug 5 1:00 am
running 08/05/2018 03:58:56 Aug 4 11:58 pm Aug 4 8:58 pm
too low 08/05/2018 02:59:12 Aug 4 10:59 pm Aug 4 7:59 pm
too low 08/05/2018 01:59:28 Aug 4 09:59 pm Aug 4 6:59 pm
too low 08/05/2018 00:59:44 Aug 4 08:59 pm Aug 4 5:59 pm
too low 08/05/2018 00:00:00 Aug 4 08:00 pm Aug 4 5:00 pm
too low 08/04/2018 22:58:08 Aug 4 06:58 pm Aug 4 3:58 pm
too low 08/04/2018 21:58:24 Aug 4 05:58 pm Aug 4 2:58 pm
too low 08/04/2018 20:58:40 Aug 4 04:58 pm Aug 4 1:58 pm
too low 08/04/2018 19:58:56 Aug 4 03:58 pm Aug 4 12:58 pm
too low 08/04/2018 18:59:12 Aug 4 02:59 pm Aug 4 11:59 am
too low 08/04/2018 17:59:28 Aug 4 01:59 pm Aug 4 10:59 am
too low 08/04/2018 16:59:44 Aug 4 12:59 pm Aug 4 9:59 am
too low 08/03/2018 22:58:08 Aug 3 06:58 pm Aug 3 3:58 pm
too low 08/03/2018 21:58:24 Aug 3 05:58 pm Aug 3 2:58 pm
too low 08/03/2018 20:58:40 Aug 3 04:58 pm Aug 3 1:58 pm
too low 08/03/2018 19:58:56 Aug 3 03:58 pm Aug 3 12:58 pm
too low 08/03/2018 18:59:12 Aug 3 02:59 pm Aug 3 11:59 am
too low 08/03/2018 17:59:28 Aug 3 01:59 pm Aug 3 10:59 am
too low 08/03/2018 16:59:44 Aug 3 12:59 pm Aug 3 9:59 am
too low 08/03/2018 10:59:12 Aug 3 06:59 am Aug 3 3:59 am
too low 08/03/2018 09:59:28 Aug 3 05:59 am Aug 3 2:59 am
too low 08/03/2018 08:59:44 Aug 3 04:59 am Aug 3 1:59 am
too low 08/03/2018 08:00:00 Aug 3 04:00 am Aug 3 1:00 am
too low 08/03/2018 03:58:56 Aug 2 11:58 pm Aug 2 8:58 pm
running 08/03/2018 02:59:12 Aug 2 10:59 pm Aug 2 7:59 pm
too low 08/03/2018 01:59:28 Aug 2 09:59 pm Aug 2 6:59 pm
too low 08/03/2018 00:59:44 Aug 2 08:59 pm Aug 2 5:59 pm
too low 08/03/2018 00:00:00 Aug 2 08:00 pm Aug 2 5:00 pm
too low 08/02/2018 22:58:08 Aug 2 06:58 pm Aug 2 3:58 pm
too low 08/02/2018 21:58:24 Aug 2 05:58 pm Aug 2 2:58 pm
too low 08/02/2018 20:58:40 Aug 2 04:58 pm Aug 2 1:58 pm
too low 08/02/2018 19:58:56 Aug 2 03:58 pm Aug 2 12:58 pm
too low 08/02/2018 18:59:12 Aug 2 02:59 pm Aug 2 11:59 am
too low 08/02/2018 17:59:28 Aug 2 01:59 pm Aug 2 10:59 am
too low 08/02/2018 16:59:44 Aug 2 12:59 pm Aug 2 9:59 am
too low 08/02/2018 16:00:00 Aug 2 12:00 pm Aug 2 9:00 am
too low 08/02/2018 14:58:08 Aug 2 10:58 am Aug 2 7:58 am
too low 08/02/2018 12:58:40 Aug 2 08:58 am Aug 2 5:58 am
too low 08/02/2018 11:58:56 Aug 2 07:58 am Aug 2 4:58 am
too low 08/02/2018 09:59:28 Aug 2 05:59 am Aug 2 2:59 am
too low 08/02/2018 08:00:00 Aug 2 04:00 am Aug 2 1:00 am
too low 08/02/2018 06:58:08 Aug 2 02:58 am Aug 1 11:58 pm
running 08/02/2018 02:59:12 Aug 1 10:59 pm Aug 1 7:59 pm
too low 08/02/2018 01:59:28 Aug 1 09:59 pm Aug 1 6:59 pm

Report - Reports of Related Gauges

Reports give the public a chance to report on river conditions throughout the country as well as log the history of a river.

Reports

No Reports Filed

Linked Reaches

Click a heading to sort. Hover over a heading for help.
River Name/Section Class Level running? Updated
Pit [CA] 2) Pit 1: Fall River Mills to Pit River Campground (Pit Fall... III-IV ~ 125 cfs
+ 28 cfs/hr
L0-
Below Recom.
04h30m